{"data":{"norad_id":63847,"epoch":"2026-09-20T17:43:36.749856Z","epoch_age_seconds":129230,"freshness":"FRESH","line1":"1 63847U 25093M   26263.73861979  .00013021  00000+0  48166-3 0  9990","line2":"2 63847  43.0007  56.2609 0000219  16.3270 343.7589 15.27592675 77803","mean_motion":15.27592675,"eccentricity":2.19e-5,"inclination_deg":43.0007,"raan_deg":56.2609,"arg_perigee_deg":16.327,"mean_anomaly_deg":343.7589,"bstar":0.00048166,"rev_number":7780,"period_min":94.26596654766,"perigee_km":482.86088364795,"apogee_km":483.1614019366,"semimajor_km":6861.1481427923,"source":"CELESTRAK","updated_at":"2026-09-21T09:00:35.133382Z"}}